Regional Weather Roundup
Issued by NWS

Home | Current Version | Previous Version | Graphics & Text | Print | Product List | Glossary On
Versions: 1 2 3 4 5 6 7 8 9 10 11 12 13 14 15 16 17 18 19 20 21 22 23 24 25 26 27 28 29 30 31 32 33 34 35 36 37 38 39 40 41 42 43 44 45 46 47 48 49 50
000
ASUS43 KTOP 300808
RWRKS

WEATHER ROUNDUP FOR KANSAS
NATIONAL WEATHER SERVICE GOODLAND KS
300 AM CDT SUN APR 30 2017

NOTE:  "FAIR" INDICATES FEW OR NO CLOUDS BELOW 12,000 FEET WITH NO
SIGNIFICANT WEATHER AND/OR OBSTRUCTIONS TO VISIBILITY.

KSZ001>006-013>018-027>032-041>047-300900-
NORTHWEST KANSAS

CITY           SKY/WX    TMP DP  RH WIND       PRES   REMARKS
GOODLAND       LGT SNOW  32  30  92 N23       29.89R FOG     WCI  19
HAYS           LGT SNOW  36  34  92 N32G44    29.68F FOG     WCI  23
HILL CITY      RAIN      35  34  96 N25G35    29.84F FOG     WCI  23
RUSSELL        LGT SNOW  38  36  92 N28G41    29.68F FOG     WCI  26
$$

KSZ061>065-074>080-084>089-300900-
SOUTHWEST KANSAS

CITY           SKY/WX    TMP DP  RH WIND       PRES   REMARKS
DODGE CITY     CLOUDY    34  32  92 N31G47    29.61F WCI  20
ELKHART          N/A     31  37 100 NW18        N/A  WCI  19
GREAT BEND     RAIN      38  37  97 NE22G37   29.66F FOG     WCI  27
LIBERAL        LGT SNOW  32  32 100 NW24      29.76F VSB 1   WCI  19
PRATT          LGT RAIN  36  35  97 NE26      29.62F WCI  24
$$

KSZ066>073-081>083-090>101-300900-
SOUTHEAST KANSAS

CITY           SKY/WX    TMP DP  RH WIND       PRES   REMARKS
CHANUTE        LGT RAIN  57  55  93 N7        29.59F
COFFEYVILLE    CLOUDY    60  59  96 CALM      29.55F
HUTCHINSON     LGT RAIN  41  39  93 NE22G39   29.60F FOG
MEDICINE LODGE   N/A    N/A N/A N/A NE23G33   29.50F
NEWTON         LGT RAIN  40  39  97 NE22G36   29.60F FOG     WCI  30
PARSONS        CLOUDY    60  58  92 VRB3      29.57F
WICHITA INTL   LGT RAIN  43  42  97 NE21      29.59F FOG
WICHITA JABRA  RAIN      42  42 100 NE17G26   29.59F FOG
WICHITA MCCONL LGT RAIN  43  41  93 NE20      29.58F FOG
WINFIELD       CLOUDY    46  45  96 N7        29.60R FOG
$$

KSZ007>012-019>026-033>040-048>060-102>105-300900-
NORTHEAST KANSAS

CITY           SKY/WX    TMP DP  RH WIND       PRES   REMARKS
CONCORDIA      LGT RAIN  39  38  96 NE22G33   29.76F FOG     WCI  29
EMPORIA        LGT RAIN  42  42 100 NE16      29.66F FOG
LAWRENCE       LGT RAIN  44  43  96 N15G21    29.71S FOG
MANHATTAN      LGT RAIN  42  42 100 NE21G28   29.73F FOG
MARYSVILLE     RAIN      39  37  93 N18       29.80F WCI  30
OLATHE IND     LGT RAIN  43  43 100 N12       29.70F FOG
OLATHE EXE     LGT RAIN  44  44 100 N13       29.69S FOG
SALINA         LGT RAIN  42  39  89 N18G32    29.70F FOG
TOPEKA BILLARD LGT RAIN  43  43 100 NE14G24   29.73R FOG
TOPEKA FORBES  LGT RAIN  44  42  93 N13G21    29.71S FOG
$$




USA.gov is the U.S. government's official web portal to all federal, state and local government web resources and services.